Temperature
5 4 4 4 5 6 5 5 5 6 6 6 5 5 5 6 5 5 5 6 7 7 8 8 8 9 9 9 9 9 10 9 9 9 10 10 10 10 10 10 10 10 10 10
4 4 4 5 5 5 5 5 5 5 5 5 4 4 5 4 4 5 5 5 6 7 7 8 8 8 8 9 9 9 9 9 9 9 9 9 9 9 10 10 10 10 10 10
4 4 5 5 5 5 5 4 4 5 4 4 4 4 5 4 4 4 5 5 5 6 7 7 7 8 8 8 8 8 8 9 9 8 8 8 8 8 9 9 9 9 9 9
3 4 4 4 4 4 4 5 5 4 4 3 3 3 4 4 3 3 4 4 5 5 6 6 7 7 7 8 8 8 8 8 8 8 8 8 8 8 8 8 9 9 9 9
3 4 4 4 4 4 4 4 4 4 3 2 2 2 3 3 3 3 3 4 4 5 5 6 6 7 7 7 7 7 7 7 7 7 7 7 7 7 8 8 8 8 8 8
3 4 4 4 4 4 3 3 2 1 1 2 2 2 3 2 3 3 3 3 4 4 5 5 5 6 6 6 7 7 7 7 7 7 7 7 7 7 7 7 7 8 8 8
3 3 3 4 4 3 3 2 2 2 1 2 2 2 3 3 2 2 2 3 3 4 4 4 5 5 6 6 6 6 6 6 6 6 6 6 6 6 7 7 7 7 7 7
2 2 3 3 3 3 2 3 2 3 2 1 1 1 2 2 2 2 3 3 3 3 3 3 4 4 4 5 5 5 5 5 5 5 6 6 6 6 6 6 6 6 6 7
2 2 2 3 3 3 2 2 2 1 0 0 1 1 1 2 2 2 2 2 2 3 3 3 3 3 4 4 4 4 4 4 4 4 5 5 5 5 5 5 6 6 6 6
1 1 2 2 3 2 2 1 0 1 1 2 2 1 2 2 2 1 1 1 2 2 2 3 3 3 3 3 3 3 3 4 4 4 4 4 4 4 4 4 5 5 5 5
1 0 1 1 1 1 1 1 0 -0 -0 1 1 2 2 2 2 1 1 1 1 1 2 2 2 2 2 2 2 2 3 3 3 3 3 3 3 4 4 4 4 4 4 5
-0 -1 -0 0 1 1 1 1 -0 1 -0 -1 -1 1 2 1 1 1 0 1 1 1 1 1 1 1 1 2 2 2 2 2 2 2 3 3 3 3 3 3 3 3 4 4
-1 -1 -0 1 1 -0 0 -0 -0 -1 -1 -2 -1 1 1 0 0 1 0 0 1 1 1 1 1 1 1 1 1 2 2 2 2 2 2 2 2 2 2 2 3 3 3 3
0 -1 -0 1 1 -1 -1 -1 -1 -1 -1 -2 -1 0 1 0 -0 -0 -0 -0 0 0 0 0 0 0 0 1 1 1 1 2 2 2 2 2 2 1 2 2 2 2 2 3
-1 -2 -2 -2 -1 -1 -1 -1 -1 -1 -1 -1 -1 -1 0 -0 -1 -1 -1 -1 -1 -1 -1 -0 -0 -0 -0 0 0 1 1 1 1 1 1 1 1 1 1 1 1 1 2 2
-3 -2 -2 -2 -1 -2 -1 -1 -1 -1 -1 -1 -1 -1 -1 -1 -1 -1 -1 -2 -1 -1 -1 -1 -1 -1 -0 -0 -0 0 1 1 1 1 1 1 1 1 1 1 1 1 1 1
-3 -3 -2 -2 -2 -2 -1 -2 -1 -2 -2 -2 -1 -1 -2 -2 -2 -2 -2 -2 -2 -2 -1 -1 -1 -1 -1 -1 -1 -0 -0 0 0 0 0 -0 -0 -0 0 0 0 0 0 0
-4 -3 -3 -3 -2 -1 -0 -2 -2 -2 -2 -2 -2 -2 -2 -2 -2 -2 -1 -2 -2 -2 -2 -2 -2 -1 -1 -1 -1 -1 -1 -0 -1 -1 -1 -1 -1 -1 -1 -1 -1 -0 -0 -0
-4 -3 -3 -4 -3 -2 -1 -2 -3 -3 -2 -3 -3 -2 -3 -3 -3 -2 -2 -2 -2 -2 -2 -2 -2 -2 -1 -1 -1 -1 -1 -1 -1 -1 -1 -1 -1 -1 -1 -1 -1 -1 -1 -1
-5 -4 -4 -4 -2 -1 -0 -1 -2 -2 -2 -2 -3 -3 -3 -4 -3 -3 -2 -3 -3 -2 -2 -2 -2 -2 -2 -2 -2 -2 -2 -2 -1 -2 -2 -2 -2 -2 -2 -2 -2 -2 -2 -1
-4 -4 -4 -4 -3 -2 -2 -2 -2 -1 -1 -2 -2 -3 -3 -4 -3 -3 -3 -3 -3 -3 -3 -2 -2 -2 -2 -2 -2 -2 -2 -2 -2 -2 -2 -2 -2 -2 -2 -2 -2 -2 -2 -2
-4 -5 -5 -5 -4 -2 -2 -3 -3 -2 -2 -2 -2 -2 -3 -3 -3 -3 -3 -3 -3 -3 -3 -3 -3 -3 -2 -3 -3 -2 -2 -2 -2 -2 -2 -2 -2 -2 -2 -2 -2 -2 -3 -2
-5 -4 -4 -4 -2 -3 -3 -3 -2 -2 -2 -2 -2 -3 -3 -3 -4 -4 -4 -4 -4 -3 -3 -3 -3 -3 -3 -3 -3 -3 -3 -3 -3 -3 -3 -3 -3 -3 -3 -3 -3 -3 -3 -3
-5 -6 -5 -5 -4 -4 -3 -2 -2 -2 -2 -2 -3 -3 -3 -3 -4 -4 -4 -4 -4 -4 -4 -4 -3 -3 -3 -3 -3 -3 -3 -3 -3 -3 -3 -3 -3 -3 -3 -3 -3 -3 -3 -3
-5 -6 -6 -5 -5 -4 -3 -2 -2 -3 -3 -3 -3 -3 -4 -4 -4 -4 -4 -4 -4 -4 -4 -4 -4 -4 -4 -4 -4 -4 -4 -4 -3 -4 -4 -4 -4 -4 -4 -4 -4 -3 -3 -3
-6 -6 -5 -4 -4 -4 -3 -2 -2 -3 -3 -3 -4 -4 -4 -4 -4 -4 -4 -4 -4 -4 -4 -4 -4 -4 -4 -4 -4 -4 -4 -4 -4 -4 -4 -4 -4 -4 -4 -4 -4 -4 -4 -4
Wind_Speed
2 3 3 5 5 3 3 3 5 5 3 2 6 10 11 7 4 4 4 4 4 4 3 2 2 2 2 2 2 0 1 1 1 1 1 1 2 2 2 3 4 4 4 6
3 3 5 3 3 2 2 3 4 5 3 3 6 10 9 5 4 4 4 4 4 3 3 3 3 3 2 2 2 1 1 1 2 2 2 2 2 2 3 2 3 5 5 6
5 3 2 2 2 2 3 4 4 4 5 3 4 7 5 3 2 2 2 3 3 3 3 3 3 2 3 2 2 2 2 2 2 2 1 0 0 0 1 2 2 3 5 5
1 2 1 2 3 3 4 3 3 2 2 3 1 5 6 3 4 3 3 3 3 3 3 2 2 3 3 3 3 2 2 2 2 2 2 2 2 3 3 3 3 3 4 4
2 1 2 3 3 3 3 0 1 1 2 3 1 3 8 2 4 5 5 4 4 4 3 3 3 3 3 3 2 2 2 2 2 2 3 3 3 3 2 2 3 3 3 4
2 1 2 3 1 3 3 3 3 3 2 3 5 5 7 3 5 4 4 4 4 4 3 2 2 2 3 3 2 2 2 3 2 2 2 3 3 3 2 3 3 3 2 2
2 1 1 1 2 2 3 4 3 3 2 6 2 4 8 6 4 4 4 4 4 3 2 2 3 3 4 3 3 2 2 3 3 2 2 2 3 3 4 4 4 3 3 3
2 3 2 0 2 3 2 5 5 5 5 5 2 7 7 4 3 3 3 3 2 3 3 3 3 3 4 4 3 3 3 3 3 3 3 2 2 2 3 3 3 4 4 4
4 3 1 1 1 4 3 3 3 4 1 3 6 6 7 2 3 2 2 2 3 4 4 4 4 3 3 3 3 3 3 3 3 3 3 3 3 3 3 3 3 3 3 3
4 2 3 2 1 1 3 5 4 3 2 5 6 5 5 5 5 4 3 4 5 5 5 5 3 3 3 3 4 3 3 4 4 4 3 3 3 3 3 3 3 3 3 3
2 3 2 0 3 4 3 2 3 3 3 4 5 6 4 5 4 4 5 5 5 6 6 6 4 4 4 4 4 4 4 4 4 4 4 4 4 4 3 3 4 4 3 3
2 3 2 4 3 1 3 5 5 4 4 4 3 7 4 3 3 3 4 5 5 5 5 5 5 5 5 5 5 5 5 4 5 4 4 3 3 3 3 3 4 3 4 4
3 4 1 3 2 1 2 3 4 3 3 5 5 7 2 1 3 3 4 5 5 5 6 6 6 6 6 6 5 5 5 5 5 4 3 3 3 3 4 4 4 3 4 3
3 4 6 7 5 3 4 5 5 5 5 6 9 10 8 7 6 7 6 6 5 5 5 6 6 7 7 6 5 5 5 5 4 3 3 3 3 4 4 4 3 3 3 3
3 3 4 5 5 4 6 8 8 10 9 9 9 10 12 8 7 7 6 6 6 6 7 7 8 8 7 6 6 5 5 4 4 3 3 4 3 3 3 3 3 3 3 3
2 2 1 4 4 4 7 9 10 11 9 10 10 13 8 6 6 6 6 6 6 8 8 8 8 8 7 6 6 5 5 4 3 3 4 3 3 2 3 3 3 3 3 3
2 3 1 4 4 3 7 9 9 7 7 8 11 11 4 6 7 8 7 6 7 8 9 9 8 8 7 6 5 5 4 4 3 3 3 3 3 2 3 3 2 3 3 3
5 4 2 1 2 6 6 2 6 7 8 9 8 7 6 7 7 7 6 5 7 8 8 8 7 7 6 5 4 4 3 3 3 3 3 3 3 3 3 2 3 3 3 3
4 5 3 2 3 8 6 3 4 4 7 7 9 9 6 4 5 5 3 4 6 7 7 7 6 6 4 4 3 3 3 3 3 3 3 3 3 3 3 3 4 3 3 3
3 3 3 3 3 6 5 1 2 2 5 4 5 6 4 1 4 5 4 6 7 7 6 5 5 4 3 3 2 2 3 3 3 4 4 4 3 3 3 4 4 3 3 3
2 1 4 4 5 8 5 1 3 2 6 3 3 4 3 4 5 5 6 6 6 6 6 5 4 4 4 3 2 2 3 4 5 4 4 4 3 3 3 4 3 2 2 2
6 5 5 4 4 7 2 4 5 5 3 3 3 2 3 4 4 5 5 6 6 6 6 5 4 5 4 3 2 3 4 5 4 4 3 4 3 3 3 2 2 2 2 2
6 7 5 8 7 3 3 4 4 2 3 4 3 3 2 3 4 4 5 5 5 5 5 5 4 5 5 4 2 3 5 4 4 3 4 4 4 3 3 2 2 2 2 2
4 2 3 5 6 5 5 4 4 3 3 3 3 2 2 3 4 4 4 5 5 5 5 4 4 5 5 5 4 4 5 4 3 3 4 4 3 3 3 3 2 2 2 2
4 4 3 5 6 5 5 5 4 3 3 2 2 2 2 2 4 4 4 5 5 5 5 4 4 5 6 6 6 5 5 3 3 3 4 4 3 3 3 3 2 3 3 4
4 6 6 6 5 4 5 3 2 2 3 2 2 3 2 2 3 4 4 4 4 5 5 5 5 5 6 6 6 6 5 3 3 3 3 3 3 2 2 3 3 5 4 6
Wind_Direction
42 87 204 214 202 196 179 206 251 266 296 285 262 273 281 289 288 279 283 288 286 278 295 334 355 350 19 22 19 307 196 219 165 176 203 218 226 228 225 221 209 203 200 193
61 244 238 212 186 161 183 239 264 291 321 282 276 277 275 268 252 250 259 271 279 298 332 348 0 7 359 347 337 339 261 239 211 210 204 206 219 221 219 226 224 213 204 203
180 230 213 164 160 194 234 214 233 266 323 335 313 293 266 263 253 277 270 261 272 269 287 314 336 342 344 335 311 304 279 256 240 213 186 136 86 23 245 233 229 229 218 209
210 276 159 171 210 184 248 228 221 252 317 293 355 287 278 272 292 286 289 292 283 277 273 284 302 319 319 304 301 296 287 282 268 215 183 186 209 224 237 239 237 240 225 217
237 214 181 205 220 175 211 288 225 235 186 293 262 236 282 294 277 273 272 272 278 277 261 268 275 283 302 308 311 311 323 314 293 244 213 204 226 237 246 247 243 247 238 225
242 249 196 204 207 166 151 66 49 51 79 271 227 205 276 248 244 266 264 276 288 287 277 275 295 314 317 316 322 335 343 319 310 280 236 221 228 239 244 251 240 245 250 243
329 301 318 111 90 55 84 88 25 345 317 251 214 218 252 255 247 236 256 275 291 295 298 308 322 324 321 323 328 329 327 317 313 297 271 248 240 238 237 239 234 239 249 251
166 262 243 181 160 175 184 150 164 211 239 276 260 237 255 264 263 247 251 262 292 306 304 302 303 307 312 316 325 320 309 308 308 294 281 270 253 247 243 244 245 237 241 243
175 240 317 241 182 143 147 180 160 145 185 273 265 277 294 264 277 287 297 307 308 309 308 310 314 314 312 317 319 309 302 305 302 291 280 277 268 253 250 252 255 249 253 251
152 220 282 289 78 46 157 149 117 144 194 262 282 268 257 265 261 280 294 299 304 310 313 317 316 313 311 310 310 312 307 300 299 294 281 276 269 252 246 249 257 259 261 257
124 154 298 344 194 190 143 146 144 145 171 196 270 271 235 231 243 260 273 284 299 309 314 314 315 315 316 317 312 310 313 314 310 299 284 276 275 265 250 247 253 255 257 253
134 135 233 250 259 223 197 186 162 179 227 201 224 270 280 237 252 263 290 310 315 314 314 316 317 321 321 316 313 311 313 311 300 292 281 276 277 273 264 262 264 263 258 256
146 134 57 339 330 319 226 205 185 160 157 186 208 261 306 349 338 325 314 314 317 320 322 325 327 323 318 313 311 310 308 303 303 298 284 281 282 277 272 271 270 269 265 264
144 165 193 214 231 202 236 226 195 178 206 225 231 255 284 303 308 310 311 308 304 307 313 317 318 317 315 313 311 309 307 303 304 299 286 274 269 267 270 273 269 267 266 261
122 201 228 254 265 240 240 236 218 217 220 225 245 250 266 277 285 292 291 299 304 308 312 312 313 314 315 315 313 312 308 309 309 305 295 281 272 267 273 275 276 276 270 269
120 177 209 275 268 258 261 251 234 233 234 240 258 266 264 275 285 289 286 286 292 299 303 306 308 311 310 310 312 316 315 315 311 302 298 298 293 278 271 274 276 282 281 279
154 148 166 266 304 326 268 236 217 219 219 214 239 253 296 294 290 287 282 280 287 294 297 301 304 303 302 304 307 306 307 315 318 309 305 303 293 277 271 275 280 277 274 275
161 159 171 253 20 248 249 198 193 217 241 226 243 267 268 269 282 280 264 265 289 296 296 296 295 297 297 301 308 308 315 318 314 308 306 305 295 283 278 272 270 271 272 269
169 157 160 166 241 276 283 235 183 206 263 225 238 266 275 297 313 289 259 284 286 291 292 291 290 292 294 298 305 318 320 317 315 302 298 299 290 287 286 276 270 270 267 270
89 121 149 163 209 248 259 246 176 138 278 241 227 259 274 317 299 283 305 310 307 310 313 312 317 319 313 311 320 330 316 318 307 299 295 294 288 279 281 281 274 268 260 266
135 147 186 196 229 264 260 229 125 174 262 292 247 250 236 230 248 284 309 314 314 319 325 334 334 328 319 325 337 315 308 301 299 299 295 293 290 283 280 284 279 272 276 283
181 176 192 176 213 257 223 140 186 233 292 295 278 255 247 263 283 298 308 315 325 330 333 340 342 335 335 341 343 326 314 311 314 312 308 308 306 300 299 291 292 286 277 282
202 196 194 199 218 262 201 213 246 258 281 285 277 275 260 280 290 302 309 315 321 323 329 336 337 335 338 342 338 316 313 321 329 330 323 320 318 307 302 294 288 284 268 261
244 188 195 253 264 263 260 264 274 264 263 280 279 277 269 279 289 298 307 315 321 325 328 333 338 338 334 336 333 315 315 321 325 322 319 320 324 323 321 313 300 285 272 267
218 177 206 253 275 297 273 253 260 274 284 299 309 288 265 269 290 294 302 308 314 322 327 333 335 332 328 334 333 327 324 328 331 323 318 322 324 320 325 321 304 290 278 268
198 187 194 232 231 218 258 273 253 258 278 276 298 314 308 281 283 299 304 305 312 319 326 333 336 334 332 334 332 332 331 326 322 321 319 319 319 316 315 320 327 326 312 312
Height
1478 1482 1484 1483 1484 1484 1486 1488 1488 1486 1484 1484 1483 1479 1475 1473 1473 1472 1471 1471 1471 1471 1472 1473 1473 1474 1474 1475 1476 1477 1478 1479 1479 1480 1481 1482 1483 1484 1486 1488 1490 1492 1493 1495
1482 1484 1482 1482 1483 1484 1486 1488 1488 1486 1484 1484 1482 1478 1473 1471 1471 1470 1469 1469 1468 1468 1469 1470 1470 1471 1471 1472 1472 1473 1474 1475 1476 1477 1477 1478 1479 1480 1482 1484 1486 1487 1489 1491
1481 1482 1480 1481 1483 1484 1485 1487 1487 1487 1485 1484 1484 1477 1472 1469 1468 1468 1467 1466 1466 1466 1466 1467 1468 1468 1468 1469 1469 1470 1471 1472 1472 1473 1474 1475 1475 1476 1478 1479 1481 1483 1484 1486
1481 1480 1480 1481 1482 1483 1485 1484 1484 1485 1489 1491 1489 1488 1473 1470 1468 1466 1465 1464 1463 1464 1464 1464 1465 1465 1466 1466 1467 1467 1468 1468 1469 1469 1470 1470 1471 1471 1473 1474 1476 1478 1480 1481
1481 1480 1480 1481 1481 1482 1484 1483 1485 1486 1490 1495 1492 1494 1476 1471 1468 1465 1463 1462 1461 1461 1461 1461 1462 1462 1463 1463 1464 1464 1464 1464 1465 1465 1466 1466 1467 1468 1470 1470 1472 1473 1475 1476
1480 1479 1479 1479 1479 1480 1482 1485 1488 1492 1494 1495 1491 1492 1478 1472 1465 1462 1461 1459 1459 1458 1458 1459 1459 1459 1460 1460 1460 1460 1460 1460 1461 1461 1462 1462 1463 1464 1465 1466 1467 1468 1470 1471
1481 1479 1478 1478 1480 1482 1483 1490 1496 1496 1501 1493 1488 1487 1475 1464 1462 1460 1459 1458 1457 1457 1456 1456 1455 1455 1456 1456 1455 1456 1456 1456 1456 1457 1457 1458 1459 1459 1460 1461 1461 1463 1464 1465
1484 1484 1479 1478 1479 1482 1484 1486 1494 1497 1499 1494 1489 1484 1469 1462 1459 1458 1458 1457 1456 1455 1454 1454 1453 1453 1452 1452 1452 1452 1452 1452 1452 1453 1453 1453 1454 1455 1455 1456 1457 1458 1459 1460
1484 1482 1479 1478 1478 1480 1484 1487 1488 1496 1500 1499 1488 1480 1467 1459 1458 1457 1456 1455 1454 1453 1453 1452 1451 1450 1450 1449 1449 1449 1449 1448 1448 1449 1449 1449 1450 1450 1451 1451 1452 1453 1454 1455
1480 1485 1481 1479 1479 1480 1481 1485 1492 1495 1495 1490 1483 1480 1469 1460 1458 1456 1455 1454 1453 1452 1451 1450 1449 1448 1447 1446 1446 1446 1445 1444 1444 1445 1445 1445 1445 1446 1446 1446 1447 1448 1449 1450
1479 1485 1484 1481 1481 1481 1483 1486 1488 1493 1494 1493 1488 1473 1459 1458 1456 1456 1454 1453 1452 1451 1449 1448 1446 1446 1445 1444 1443 1442 1442 1441 1441 1441 1441 1440 1441 1441 1442 1442 1442 1443 1444 1446
1480 1485 1487 1483 1480 1479 1479 1481 1486 1489 1493 1496 1495 1476 1456 1455 1454 1454 1453 1452 1451 1450 1448 1446 1445 1443 1442 1441 1440 1439 1438 1437 1437 1437 1437 1436 1436 1437 1437 1437 1438 1439 1440 1441
1479 1484 1486 1482 1484 1482 1481 1480 1482 1486 1490 1494 1491 1471 1456 1454 1453 1453 1452 1451 1449 1448 1446 1444 1442 1441 1439 1437 1436 1435 1434 1434 1434 1433 1433 1432 1432 1432 1433 1433 1434 1434 1435 1436
1475 1481 1482 1478 1476 1479 1479 1479 1481 1483 1485 1486 1479 1465 1457 1455 1454 1453 1451 1449 1448 1446 1444 1442 1440 1438 1436 1434 1433 1432 1431 1430 1430 1429 1429 1428 1428 1429 1429 1430 1430 1430 1431 1431
1475 1480 1481 1479 1476 1476 1476 1475 1476 1477 1474 1475 1466 1464 1454 1455 1454 1451 1449 1447 1446 1444 1442 1440 1437 1435 1433 1432 1430 1429 1428 1427 1426 1426 1425 1425 1425 1425 1426 1426 1426 1426 1427 1427
1476 1479 1480 1478 1475 1475 1473 1470 1469 1469 1469 1467 1464 1458 1451 1452 1451 1448 1447 1445 1443 1441 1439 1437 1434 1432 1430 1428 1427 1426 1424 1424 1423 1423 1422 1422 1422 1422 1422 1422 1422 1422 1423 1423
1476 1479 1480 1478 1477 1473 1470 1463 1463 1463 1461 1461 1459 1452 1450 1449 1448 1445 1443 1442 1440 1438 1435 1433 1431 1429 1427 1426 1424 1423 1422 1422 1421 1420 1420 1419 1419 1419 1419 1419 1418 1418 1419 1419
1475 1477 1480 1481 1479 1475 1458 1456 1456 1457 1455 1455 1452 1449 1448 1447 1444 1442 1440 1439 1437 1435 1432 1430 1428 1426 1424 1423 1422 1421 1420 1420 1419 1418 1417 1417 1416 1416 1415 1415 1415 1415 1415 1415
1471 1475 1479 1482 1480 1469 1457 1454 1455 1456 1453 1448 1448 1446 1445 1444 1442 1439 1437 1436 1434 1431 1429 1427 1424 1423 1421 1420 1419 1419 1418 1418 1417 1416 1415 1414 1413 1412 1412 1412 1411 1412 1412 1412
1471 1473 1477 1480 1475 1466 1453 1451 1450 1453 1451 1444 1444 1443 1443 1443 1443 1437 1434 1432 1430 1428 1426 1423 1421 1420 1419 1418 1417 1416 1416 1415 1414 1413 1412 1411 1410 1410 1409 1408 1408 1408 1408 1408
1473 1475 1476 1477 1475 1462 1451 1450 1451 1455 1448 1442 1441 1440 1440 1440 1439 1436 1433 1430 1428 1426 1423 1421 1419 1418 1417 1416 1415 1414 1413 1412 1412 1410 1409 1408 1408 1407 1406 1405 1405 1404 1404 1404
1467 1471 1474 1474 1472 1460 1449 1449 1450 1447 1442 1441 1439 1439 1438 1437 1435 1433 1431 1428 1426 1424 1422 1420 1418 1416 1415 1414 1413 1412 1411 1410 1409 1408 1407 1406 1405 1404 1403 1402 1402 1401 1401 1401
1462 1460 1460 1459 1454 1448 1446 1445 1444 1442 1441 1439 1438 1437 1436 1434 1433 1431 1429 1427 1425 1423 1421 1419 1417 1416 1415 1413 1412 1411 1409 1408 1407 1405 1404 1403 1403 1402 1401 1400 1399 1398 1398 1398
1457 1455 1456 1455 1448 1445 1444 1443 1441 1440 1439 1438 1437 1436 1434 1432 1431 1429 1427 1426 1424 1422 1420 1418 1417 1415 1414 1412 1411 1409 1408 1407 1405 1404 1402 1401 1400 1399 1398 1397 1396 1396 1395 1395
1451 1453 1453 1451 1445 1443 1440 1440 1439 1438 1437 1435 1434 1433 1432 1431 1429 1428 1426 1424 1423 1421 1419 1417 1416 1414 1412 1411 1409 1408 1406 1405 1403 1402 1400 1399 1398 1397 1396 1395 1395 1394 1394 1393
1446 1447 1448 1444 1440 1440 1438 1437 1436 1435 1434 1433 1432 1431 1430 1429 1427 1426 1425 1423 1422 1420 1418 1416 1414 1413 1411 1409 1408 1406 1405 1403 1401 1400 1399 1398 1397 1396 1395 1394 1393 1392 1392 1392